owner,sensor,date,latitude,longitude,sea_surface_height_above_sea_level,qcFlag 
TCOON,ioos:station:TCOON:005:1,2015-05-01T00:12:00Z,27.6346,-97.2370,1.023,1111122 
TCOON,ioos:station:TCOON:005:1,2015-05-01T01:12:00Z,27.6346,-97.2370,1.014,1111122 
TCOON,ioos:station:TCOON:005:1,2015-05-01T02:12:00Z,27.6346,-97.2370,1.005,1111122 
TCOON,ioos:station:TCOON:005:1,2015-05-01T03:12:00Z,27.6346,-97.2370,0.997,1111122 
TCOON,ioos:station:TCOON:005:1,2015-05-01T04:18:00Z,27.6346,-97.2370,0.99,1111122 
TCOON,ioos:station:TCOON:005:1,2015-05-01T05:18:00Z,27.6346,-97.2370,0.99,1111122 
TCOON,ioos:station:TCOON:005:1,2015-05-01T06:18:00Z,27.6346,-97.2370,0.993,1111122 
TCOON,ioos:station:TCOON:005:1,2015-05-01T07:12:00Z,27.6346,-97.2370,0.994,1111122 
TCOON,ioos:station:TCOON:005:1,2015-05-01T08:12:00Z,27.6346,-97.2370,0.996,1111122 
TCOON,ioos:station:TCOON:005:1,2015-05-01T09:18:00Z,27.6346,-97.2370,0.999,1111122 
TCOON,ioos:station:TCOON:005:1,2015-05-01T10:12:00Z,27.6346,-97.2370,1.005,1111122 
TCOON,ioos:station:TCOON:005:1,2015-05-01T11:12:00Z,27.6346,-97.2370,1.011,1111122 
TCOON,ioos:station:TCOON:005:1,2015-05-01T12:12:00Z,27.6346,-97.2370,1.022,1111122 
TCOON,ioos:station:TCOON:005:1,2015-05-01T14:18:00Z,27.6346,-97.2370,1.028,1111122 
TCOON,ioos:station:TCOON:005:1,2015-05-01T15:18:00Z,27.6346,-97.2370,1.031,1111122 
TCOON,ioos:station:TCOON:005:1,2015-05-01T16:18:00Z,27.6346,-97.2370,1.024,1111122 
TCOON,ioos:station:TCOON:005:1,2015-05-01T17:24:00Z,27.6346,-97.2370,1.031,1111122 
TCOON,ioos:station:TCOON:005:1,2015-05-01T18:18:00Z,27.6346,-97.2370,1.03,1111122 
TCOON,ioos:station:TCOON:005:1,2015-05-01T19:18:00Z,27.6346,-97.2370,1.028,1111122 
TCOON,ioos:station:TCOON:005:1,2015-05-01T20:12:00Z,27.6346,-97.2370,1.031,1111122 
TCOON,ioos:station:TCOON:005:1,2015-05-01T21:12:00Z,27.6346,-97.2370,1.028,1111122 
TCOON,ioos:station:TCOON:005:1,2015-05-01T22:18:00Z,27.6346,-97.2370,1.023,1111122 
TCOON,ioos:station:TCOON:005:1,2015-05-01T23:12:00Z,27.6346,-97.2370,1.017,1111122 
TCOON,ioos:station:TCOON:005:1,2015-05-02T00:12:00Z,27.6346,-97.2370,1.005,1111122 
TCOON,ioos:station:TCOON:005:1,2015-05-02T01:12:00Z,27.6346,-97.2370,0.986,1111122 
TCOON,ioos:station:TCOON:005:1,2015-05-02T02:12:00Z,27.6346,-97.2370,0.978,1111122 
TCOON,ioos:station:TCOON:005:1,2015-05-02T03:12:00Z,27.6346,-97.2370,0.964,1111122 
TCOON,ioos:station:TCOON:005:1,2015-05-02T04:12:00Z,27.6346,-97.2370,0.954,1111122 
TCOON,ioos:station:TCOON:005:1,2015-05-02T05:18:00Z,27.6346,-97.2370,0.948,1111122 
TCOON,ioos:station:TCOON:005:1,2015-05-02T06:18:00Z,27.6346,-97.2370,0.953,1111122 
TCOON,ioos:station:TCOON:005:1,2015-05-02T07:18:00Z,27.6346,-97.2370,0.957,1111122 
TCOON,ioos:station:TCOON:005:1,2015-05-02T08:18:00Z,27.6346,-97.2370,0.96,1111122 
TCOON,ioos:station:TCOON:005:1,2015-05-02T09:12:00Z,27.6346,-97.2370,0.965,1111122 
TCOON,ioos:station:TCOON:005:1,2015-05-02T10:18:00Z,27.6346,-97.2370,0.973,1111122 
TCOON,ioos:station:TCOON:005:1,2015-05-02T11:12:00Z,27.6346,-97.2370,0.981,1111122 
TCOON,ioos:station:TCOON:005:1,2015-05-02T12:12:00Z,27.6346,-97.2370,0.989,1111122 
TCOON,ioos:station:TCOON:005:1,2015-05-02T13:12:00Z,27.6346,-97.2370,0.989,1111122 
TCOON,ioos:station:TCOON:005:1,2015-05-02T14:12:00Z,27.6346,-97.2370,0.992,1111122 
TCOON,ioos:station:TCOON:005:1,2015-05-02T15:12:00Z,27.6346,-97.2370,0.998,1111122 
TCOON,ioos:station:TCOON:005:1,2015-05-02T16:12:00Z,27.6346,-97.2370,0.999,1111122 
TCOON,ioos:station:TCOON:005:1,2015-05-02T17:18:00Z,27.6346,-97.2370,0.996,1111122 
TCOON,ioos:station:TCOON:005:1,2015-05-02T18:18:00Z,27.6346,-97.2370,0.992,1111122 
TCOON,ioos:station:TCOON:005:1,2015-05-02T19:12:00Z,27.6346,-97.2370,0.99,1111122 
TCOON,ioos:station:TCOON:005:1,2015-05-02T20:12:00Z,27.6346,-97.2370,0.994,1111122 
TCOON,ioos:station:TCOON:005:1,2015-05-02T21:18:00Z,27.6346,-97.2370,0.989,1111122 
TCOON,ioos:station:TCOON:005:1,2015-05-02T22:18:00Z,27.6346,-97.2370,0.978,1111122 
TCOON,ioos:station:TCOON:005:1,2015-05-02T23:12:00Z,27.6346,-97.2370,0.961,1111122 
TCOON,ioos:station:TCOON:005:1,2015-05-03T00:12:00Z,27.6346,-97.2370,0.951,1111122 
TCOON,ioos:station:TCOON:005:1,2015-05-03T01:12:00Z,27.6346,-97.2370,0.938,1111122 
TCOON,ioos:station:TCOON:005:1,2015-05-03T02:12:00Z,27.6346,-97.2370,0.929,1111122 
TCOON,ioos:station:TCOON:005:1,2015-05-03T03:12:00Z,27.6346,-97.2370,0.918,1111122 
TCOON,ioos:station:TCOON:005:1,2015-05-03T04:18:00Z,27.6346,-97.2370,0.909,1111122 
TCOON,ioos:station:TCOON:005:1,2015-05-03T05:18:00Z,27.6346,-97.2370,0.907,1111122 
TCOON,ioos:station:TCOON:005:1,2015-05-03T07:06:00Z,27.6346,-97.2370,0.919,1111122 
TCOON,ioos:station:TCOON:005:1,2015-05-03T08:18:00Z,27.6346,-97.2370,0.923,1111122 
TCOON,ioos:station:TCOON:005:1,2015-05-03T09:12:00Z,27.6346,-97.2370,0.928,1111122 
TCOON,ioos:station:TCOON:005:1,2015-05-03T10:12:00Z,27.6346,-97.2370,0.937,1111122 
TCOON,ioos:station:TCOON:005:1,2015-05-03T11:12:00Z,27.6346,-97.2370,0.949,1111122 
TCOON,ioos:station:TCOON:005:1,2015-05-03T12:12:00Z,27.6346,-97.2370,0.96,1111122 
TCOON,ioos:station:TCOON:005:1,2015-05-03T13:12:00Z,27.6346,-97.2370,0.97,1111122 
TCOON,ioos:station:TCOON:005:1,2015-05-03T14:18:00Z,27.6346,-97.2370,0.984,1111122 
TCOON,ioos:station:TCOON:005:1,2015-05-03T15:18:00Z,27.6346,-97.2370,0.996,1111122 
TCOON,ioos:station:TCOON:005:1,2015-05-03T16:18:00Z,27.6346,-97.2370,0.998,1111122 
TCOON,ioos:station:TCOON:005:1,2015-05-03T17:12:00Z,27.6346,-97.2370,1.0,1111122 
TCOON,ioos:station:TCOON:005:1,2015-05-03T18:12:00Z,27.6346,-97.2370,0.998,1111122 
TCOON,ioos:station:TCOON:005:1,2015-05-03T19:18:00Z,27.6346,-97.2370,1.0,1111122 
TCOON,ioos:station:TCOON:005:1,2015-05-03T20:12:00Z,27.6346,-97.2370,1.01,1111122 
TCOON,ioos:station:TCOON:005:1,2015-05-03T21:12:00Z,27.6346,-97.2370,1.007,1111122 
TCOON,ioos:station:TCOON:005:1,2015-05-03T22:18:00Z,27.6346,-97.2370,0.997,1111122 
TCOON,ioos:station:TCOON:005:1,2015-05-03T23:12:00Z,27.6346,-97.2370,0.991,1111122 
TCOON,ioos:station:TCOON:005:1,2015-05-04T00:12:00Z,27.6346,-97.2370,0.979,1111122 
TCOON,ioos:station:TCOON:005:1,2015-05-04T01:12:00Z,27.6346,-97.2370,0.968,1111122 
TCOON,ioos:station:TCOON:005:1,2015-05-04T02:12:00Z,27.6346,-97.2370,0.945,1111122 
TCOON,ioos:station:TCOON:005:1,2015-05-04T03:12:00Z,27.6346,-97.2370,0.931,1111122 
TCOON,ioos:station:TCOON:005:1,2015-05-04T04:12:00Z,27.6346,-97.2370,0.922,1111122 
TCOON,ioos:station:TCOON:005:1,2015-05-04T05:18:00Z,27.6346,-97.2370,0.917,1111122 
TCOON,ioos:station:TCOON:005:1,2015-05-04T06:18:00Z,27.6346,-97.2370,0.921,1111122 
TCOON,ioos:station:TCOON:005:1,2015-05-04T07:18:00Z,27.6346,-97.2370,0.932,1111122 
TCOON,ioos:station:TCOON:005:1,2015-05-04T08:18:00Z,27.6346,-97.2370,0.935,1111122 
TCOON,ioos:station:TCOON:005:1,2015-05-04T09:12:00Z,27.6346,-97.2370,0.938,1111122 
TCOON,ioos:station:TCOON:005:1,2015-05-04T10:12:00Z,27.6346,-97.2370,0.944,1111122 
TCOON,ioos:station:TCOON:005:1,2015-05-04T11:12:00Z,27.6346,-97.2370,0.959,1111122 
TCOON,ioos:station:TCOON:005:1,2015-05-04T12:12:00Z,27.6346,-97.2370,0.977,1111122 
TCOON,ioos:station:TCOON:005:1,2015-05-04T13:12:00Z,27.6346,-97.2370,0.99,1111122 
TCOON,ioos:station:TCOON:005:1,2015-05-04T14:12:00Z,27.6346,-97.2370,1.002,1111122 
TCOON,ioos:station:TCOON:005:1,2015-05-04T15:18:00Z,27.6346,-97.2370,1.01,1111122 
TCOON,ioos:station:TCOON:005:1,2015-05-04T16:18:00Z,27.6346,-97.2370,1.018,1111122 
TCOON,ioos:station:TCOON:005:1,2015-05-04T17:18:00Z,27.6346,-97.2370,1.033,1111122 
TCOON,ioos:station:TCOON:005:1,2015-05-04T18:18:00Z,27.6346,-97.2370,1.043,1111122 
TCOON,ioos:station:TCOON:005:1,2015-05-04T19:18:00Z,27.6346,-97.2370,1.052,1111122 
TCOON,ioos:station:TCOON:005:1,2015-05-04T20:18:00Z,27.6346,-97.2370,1.062,1111122 
TCOON,ioos:station:TCOON:005:1,2015-05-04T21:12:00Z,27.6346,-97.2370,1.067,1111122 
TCOON,ioos:station:TCOON:005:1,2015-05-04T22:18:00Z,27.6346,-97.2370,1.067,1111122 
TCOON,ioos:station:TCOON:005:1,2015-05-04T23:12:00Z,27.6346,-97.2370,1.054,1111122 
TCOON,ioos:station:TCOON:005:1,2015-05-05T00:12:00Z,27.6346,-97.2370,1.04,1111122 
TCOON,ioos:station:TCOON:005:1,2015-05-05T01:12:00Z,27.6346,-97.2370,1.032,1111122 
TCOON,ioos:station:TCOON:005:1,2015-05-05T02:12:00Z,27.6346,-97.2370,1.017,1111122 
TCOON,ioos:station:TCOON:005:1,2015-05-05T03:12:00Z,27.6346,-97.2370,1.006,1111122 
TCOON,ioos:station:TCOON:005:1,2015-05-05T04:12:00Z,27.6346,-97.2370,0.995,1111122 
TCOON,ioos:station:TCOON:005:1,2015-05-05T05:18:00Z,27.6346,-97.2370,0.982,1111122 
TCOON,ioos:station:TCOON:005:1,2015-05-05T06:18:00Z,27.6346,-97.2370,0.974,1111122 
TCOON,ioos:station:TCOON:005:1,2015-05-05T07:12:00Z,27.6346,-97.2370,0.981,1111122 
TCOON,ioos:station:TCOON:005:1,2015-05-05T08:18:00Z,27.6346,-97.2370,0.98,1111122 
TCOON,ioos:station:TCOON:005:1,2015-05-05T09:12:00Z,27.6346,-97.2370,0.98,1111122 
TCOON,ioos:station:TCOON:005:1,2015-05-05T10:12:00Z,27.6346,-97.2370,0.987,1111122 
TCOON,ioos:station:TCOON:005:1,2015-05-05T11:12:00Z,27.6346,-97.2370,0.999,1111122 
TCOON,ioos:station:TCOON:005:1,2015-05-05T12:18:00Z,27.6346,-97.2370,1.018,1111122 
TCOON,ioos:station:TCOON:005:1,2015-05-05T13:12:00Z,27.6346,-97.2370,1.035,1111122 
TCOON,ioos:station:TCOON:005:1,2015-05-05T14:12:00Z,27.6346,-97.2370,1.055,1111122 
TCOON,ioos:station:TCOON:005:1,2015-05-05T15:18:00Z,27.6346,-97.2370,1.073,1111122 
TCOON,ioos:station:TCOON:005:1,2015-05-05T16:18:00Z,27.6346,-97.2370,1.083,1111122 
TCOON,ioos:station:TCOON:005:1,2015-05-05T17:18:00Z,27.6346,-97.2370,1.1,1111122 
TCOON,ioos:station:TCOON:005:1,2015-05-05T18:18:00Z,27.6346,-97.2370,1.108,1111122 
TCOON,ioos:station:TCOON:005:1,2015-05-05T19:18:00Z,27.6346,-97.2370,1.114,1111122 
TCOON,ioos:station:TCOON:005:1,2015-05-05T20:12:00Z,27.6346,-97.2370,1.126,1111122 
TCOON,ioos:station:TCOON:005:1,2015-05-05T21:12:00Z,27.6346,-97.2370,1.136,1111122 
TCOON,ioos:station:TCOON:005:1,2015-05-05T22:18:00Z,27.6346,-97.2370,1.146,1111122 
TCOON,ioos:station:TCOON:005:1,2015-05-05T23:12:00Z,27.6346,-97.2370,1.148,1111122 
TCOON,ioos:station:TCOON:005:1,2015-05-06T00:12:00Z,27.6346,-97.2370,1.139,1111122 
TCOON,ioos:station:TCOON:005:1,2015-05-06T01:12:00Z,27.6346,-97.2370,1.129,1111122 
TCOON,ioos:station:TCOON:005:1,2015-05-06T02:12:00Z,27.6346,-97.2370,1.122,1111122 
TCOON,ioos:station:TCOON:005:1,2015-05-06T03:12:00Z,27.6346,-97.2370,1.105,1111122 
TCOON,ioos:station:TCOON:005:1,2015-05-06T04:12:00Z,27.6346,-97.2370,1.091,1111122 
TCOON,ioos:station:TCOON:005:1,2015-05-06T05:18:00Z,27.6346,-97.2370,1.078,1111122 
TCOON,ioos:station:TCOON:005:1,2015-05-06T06:30:00Z,27.6346,-97.2370,1.076,1111122 
TCOON,ioos:station:TCOON:005:1,2015-05-06T07:18:00Z,27.6346,-97.2370,1.075,1111122 
TCOON,ioos:station:TCOON:005:1,2015-05-06T08:18:00Z,27.6346,-97.2370,1.081,1111122 
TCOON,ioos:station:TCOON:005:1,2015-05-06T09:12:00Z,27.6346,-97.2370,1.083,1111122 
TCOON,ioos:station:TCOON:005:1,2015-05-06T10:12:00Z,27.6346,-97.2370,1.086,1111122 
TCOON,ioos:station:TCOON:005:1,2015-05-06T11:12:00Z,27.6346,-97.2370,1.098,1111122 
TCOON,ioos:station:TCOON:005:1,2015-05-06T12:12:00Z,27.6346,-97.2370,1.116,1111122 
TCOON,ioos:station:TCOON:005:1,2015-05-06T13:18:00Z,27.6346,-97.2370,1.138,1111122 
TCOON,ioos:station:TCOON:005:1,2015-05-06T14:12:00Z,27.6346,-97.2370,1.151,1111122 
TCOON,ioos:station:TCOON:005:1,2015-05-06T15:12:00Z,27.6346,-97.2370,1.165,1111122 
TCOON,ioos:station:TCOON:005:1,2015-05-06T16:12:00Z,27.6346,-97.2370,1.183,1111122 
TCOON,ioos:station:TCOON:005:1,2015-05-06T17:18:00Z,27.6346,-97.2370,1.199,1111122 
TCOON,ioos:station:TCOON:005:1,2015-05-06T18:18:00Z,27.6346,-97.2370,1.207,1111122 
TCOON,ioos:station:TCOON:005:1,2015-05-06T19:18:00Z,27.6346,-97.2370,1.218,1111122 
TCOON,ioos:station:TCOON:005:1,2015-05-06T20:12:00Z,27.6346,-97.2370,1.221,1111122 
TCOON,ioos:station:TCOON:005:1,2015-05-06T21:18:00Z,27.6346,-97.2370,1.226,1111122 
TCOON,ioos:station:TCOON:005:1,2015-05-06T22:24:00Z,27.6346,-97.2370,1.233,1111122 
TCOON,ioos:station:TCOON:005:1,2015-05-06T23:12:00Z,27.6346,-97.2370,1.226,1111122 
TCOON,ioos:station:TCOON:005:1,2015-05-07T00:12:00Z,27.6346,-97.2370,1.219,1111122 
TCOON,ioos:station:TCOON:005:1,2015-05-07T01:12:00Z,27.6346,-97.2370,1.209,1111122 
TCOON,ioos:station:TCOON:005:1,2015-05-07T02:18:00Z,27.6346,-97.2370,1.185,1111122 
TCOON,ioos:station:TCOON:005:1,2015-05-07T03:12:00Z,27.6346,-97.2370,1.17,1111122 
TCOON,ioos:station:TCOON:005:1,2015-05-07T04:18:00Z,27.6346,-97.2370,1.153,1111122 
TCOON,ioos:station:TCOON:005:1,2015-05-07T05:12:00Z,27.6346,-97.2370,1.146,1111122 
TCOON,ioos:station:TCOON:005:1,2015-05-07T06:30:00Z,27.6346,-97.2370,1.125,1111122 
TCOON,ioos:station:TCOON:005:1,2015-05-07T07:12:00Z,27.6346,-97.2370,1.114,1111122 
TCOON,ioos:station:TCOON:005:1,2015-05-07T08:18:00Z,27.6346,-97.2370,1.114,1111122 
TCOON,ioos:station:TCOON:005:1,2015-05-07T09:18:00Z,27.6346,-97.2370,1.115,1111122 
TCOON,ioos:station:TCOON:005:1,2015-05-07T10:12:00Z,27.6346,-97.2370,1.115,1111122 
TCOON,ioos:station:TCOON:005:1,2015-05-07T11:12:00Z,27.6346,-97.2370,1.126,1111122 
TCOON,ioos:station:TCOON:005:1,2015-05-07T12:18:00Z,27.6346,-97.2370,1.139,1111122 
TCOON,ioos:station:TCOON:005:1,2015-05-07T13:12:00Z,27.6346,-97.2370,1.16,1111122 
TCOON,ioos:station:TCOON:005:1,2015-05-07T14:12:00Z,27.6346,-97.2370,1.176,1111122 
TCOON,ioos:station:TCOON:005:1,2015-05-07T15:18:00Z,27.6346,-97.2370,1.188,1111122 
TCOON,ioos:station:TCOON:005:1,2015-05-07T16:18:00Z,27.6346,-97.2370,1.204,1111122 
TCOON,ioos:station:TCOON:005:1,2015-05-07T17:18:00Z,27.6346,-97.2370,1.218,1111122 
TCOON,ioos:station:TCOON:005:1,2015-05-07T18:18:00Z,27.6346,-97.2370,1.228,1111122 
TCOON,ioos:station:TCOON:005:1,2015-05-07T19:12:00Z,27.6346,-97.2370,1.242,1111122 
TCOON,ioos:station:TCOON:005:1,2015-05-07T20:12:00Z,27.6346,-97.2370,1.256,1111122 
TCOON,ioos:station:TCOON:005:1,2015-05-07T21:18:00Z,27.6346,-97.2370,1.262,1111122 
TCOON,ioos:station:TCOON:005:1,2015-05-07T22:24:00Z,27.6346,-97.2370,1.26,1111122 
TCOON,ioos:station:TCOON:005:1,2015-05-07T23:12:00Z,27.6346,-97.2370,1.257,1111122 
TCOON,ioos:station:TCOON:005:1,2015-05-08T00:12:00Z,27.6346,-97.2370,1.243,1111122 
TCOON,ioos:station:TCOON:005:1,2015-05-08T01:12:00Z,27.6346,-97.2370,1.237,1111122 
TCOON,ioos:station:TCOON:005:1,2015-05-08T02:12:00Z,27.6346,-97.2370,1.213,1111122 
TCOON,ioos:station:TCOON:005:1,2015-05-08T03:12:00Z,27.6346,-97.2370,1.202,1111122 
TCOON,ioos:station:TCOON:005:1,2015-05-08T04:12:00Z,27.6346,-97.2370,1.186,1111122 
TCOON,ioos:station:TCOON:005:1,2015-05-08T05:18:00Z,27.6346,-97.2370,1.163,1111122 
TCOON,ioos:station:TCOON:005:1,2015-05-08T06:18:00Z,27.6346,-97.2370,1.15,1111122 
TCOON,ioos:station:TCOON:005:1,2015-05-08T07:12:00Z,27.6346,-97.2370,1.144,1111122 
TCOON,ioos:station:TCOON:005:1,2015-05-08T08:18:00Z,27.6346,-97.2370,1.133,1111122 
TCOON,ioos:station:TCOON:005:1,2015-05-08T09:12:00Z,27.6346,-97.2370,1.116,1111122 
TCOON,ioos:station:TCOON:005:1,2015-05-08T10:18:00Z,27.6346,-97.2370,1.123,1111122 
TCOON,ioos:station:TCOON:005:1,2015-05-08T11:12:00Z,27.6346,-97.2370,1.123,1111122 
TCOON,ioos:station:TCOON:005:1,2015-05-08T12:18:00Z,27.6346,-97.2370,1.126,1111122 
TCOON,ioos:station:TCOON:005:1,2015-05-08T13:12:00Z,27.6346,-97.2370,1.138,1111122 
TCOON,ioos:station:TCOON:005:1,2015-05-08T14:24:00Z,27.6346,-97.2370,1.154,1111122 
TCOON,ioos:station:TCOON:005:1,2015-05-08T15:12:00Z,27.6346,-97.2370,1.165,1111122 
TCOON,ioos:station:TCOON:005:1,2015-05-08T16:12:00Z,27.6346,-97.2370,1.179,1111122 
TCOON,ioos:station:TCOON:005:1,2015-05-08T17:18:00Z,27.6346,-97.2370,1.198,1111122 
TCOON,ioos:station:TCOON:005:1,2015-05-08T18:18:00Z,27.6346,-97.2370,1.213,1111122 
TCOON,ioos:station:TCOON:005:1,2015-05-08T19:12:00Z,27.6346,-97.2370,1.231,1111122 
TCOON,ioos:station:TCOON:005:1,2015-05-08T20:12:00Z,27.6346,-97.2370,1.243,1111122 
TCOON,ioos:station:TCOON:005:1,2015-05-08T21:12:00Z,27.6346,-97.2370,1.248,1111122 
TCOON,ioos:station:TCOON:005:1,2015-05-08T22:12:00Z,27.6346,-97.2370,1.248,1111122 
TCOON,ioos:station:TCOON:005:1,2015-05-08T23:12:00Z,27.6346,-97.2370,1.242,1111122 
TCOON,ioos:station:TCOON:005:1,2015-05-09T00:12:00Z,27.6346,-97.2370,1.231,1111122 
TCOON,ioos:station:TCOON:005:1,2015-05-09T01:12:00Z,27.6346,-97.2370,1.228,1111122 
TCOON,ioos:station:TCOON:005:1,2015-05-09T02:12:00Z,27.6346,-97.2370,1.225,1111122 
TCOON,ioos:station:TCOON:005:1,2015-05-09T03:12:00Z,27.6346,-97.2370,1.206,1111122 
TCOON,ioos:station:TCOON:005:1,2015-05-09T04:12:00Z,27.6346,-97.2370,1.198,1111122 
TCOON,ioos:station:TCOON:005:1,2015-05-09T05:12:00Z,27.6346,-97.2370,1.185,1111122 
TCOON,ioos:station:TCOON:005:1,2015-05-09T06:24:00Z,27.6346,-97.2370,1.177,1111122 
TCOON,ioos:station:TCOON:005:1,2015-05-09T07:12:00Z,27.6346,-97.2370,1.161,1111122 
TCOON,ioos:station:TCOON:005:1,2015-05-09T08:12:00Z,27.6346,-97.2370,1.144,1111122 
TCOON,ioos:station:TCOON:005:1,2015-05-09T09:12:00Z,27.6346,-97.2370,1.138,1111122 
TCOON,ioos:station:TCOON:005:1,2015-05-09T10:12:00Z,27.6346,-97.2370,1.13,1111122 
TCOON,ioos:station:TCOON:005:1,2015-05-09T11:12:00Z,27.6346,-97.2370,1.135,1111122 
TCOON,ioos:station:TCOON:005:1,2015-05-09T12:12:00Z,27.6346,-97.2370,1.136,1111122 
TCOON,ioos:station:TCOON:005:1,2015-05-09T13:12:00Z,27.6346,-97.2370,1.138,1111122 
TCOON,ioos:station:TCOON:005:1,2015-05-09T14:12:00Z,27.6346,-97.2370,1.14,1111122 
TCOON,ioos:station:TCOON:005:1,2015-05-09T15:12:00Z,27.6346,-97.2370,1.146,1111122 
TCOON,ioos:station:TCOON:005:1,2015-05-09T16:12:00Z,27.6346,-97.2370,1.156,1111122 
TCOON,ioos:station:TCOON:005:1,2015-05-09T17:12:00Z,27.6346,-97.2370,1.169,1111122 
TCOON,ioos:station:TCOON:005:1,2015-05-09T18:18:00Z,27.6346,-97.2370,1.179,1111122 
TCOON,ioos:station:TCOON:005:1,2015-05-09T19:12:00Z,27.6346,-97.2370,1.182,1111122 
TCOON,ioos:station:TCOON:005:1,2015-05-09T20:12:00Z,27.6346,-97.2370,1.186,1111122 
TCOON,ioos:station:TCOON:005:1,2015-05-09T21:18:00Z,27.6346,-97.2370,1.187,1111122 
TCOON,ioos:station:TCOON:005:1,2015-05-09T22:12:00Z,27.6346,-97.2370,1.187,1111122 
TCOON,ioos:station:TCOON:005:1,2015-05-09T23:12:00Z,27.6346,-97.2370,1.189,1111122 
TCOON,ioos:station:TCOON:005:1,2015-05-10T00:12:00Z,27.6346,-97.2370,1.196,1111122 
TCOON,ioos:station:TCOON:005:1,2015-05-10T01:12:00Z,27.6346,-97.2370,1.188,1111122 
TCOON,ioos:station:TCOON:005:1,2015-05-10T02:12:00Z,27.6346,-97.2370,1.171,1111122 
TCOON,ioos:station:TCOON:005:1,2015-05-10T03:12:00Z,27.6346,-97.2370,1.162,1111122 
TCOON,ioos:station:TCOON:005:1,2015-05-10T04:12:00Z,27.6346,-97.2370,1.155,1111122 
TCOON,ioos:station:TCOON:005:1,2015-05-10T05:18:00Z,27.6346,-97.2370,1.136,1111122 
TCOON,ioos:station:TCOON:005:1,2015-05-10T06:18:00Z,27.6346,-97.2370,1.127,1111122 
TCOON,ioos:station:TCOON:005:1,2015-05-10T07:12:00Z,27.6346,-97.2370,1.116,1111122 
TCOON,ioos:station:TCOON:005:1,2015-05-10T08:18:00Z,27.6346,-97.2370,1.098,1111122 
TCOON,ioos:station:TCOON:005:1,2015-05-10T09:12:00Z,27.6346,-97.2370,1.083,1111122 
TCOON,ioos:station:TCOON:005:1,2015-05-10T10:12:00Z,27.6346,-97.2370,1.08,1111122 
TCOON,ioos:station:TCOON:005:1,2015-05-10T11:12:00Z,27.6346,-97.2370,1.076,1111122 
TCOON,ioos:station:TCOON:005:1,2015-05-10T12:12:00Z,27.6346,-97.2370,1.081,1111122 
TCOON,ioos:station:TCOON:005:1,2015-05-10T13:12:00Z,27.6346,-97.2370,1.092,1111122 
TCOON,ioos:station:TCOON:005:1,2015-05-10T14:18:00Z,27.6346,-97.2370,1.103,1111122 
TCOON,ioos:station:TCOON:005:1,2015-05-10T15:12:00Z,27.6346,-97.2370,1.118,1111122 
TCOON,ioos:station:TCOON:005:1,2015-05-10T16:12:00Z,27.6346,-97.2370,1.139,1111122 
TCOON,ioos:station:TCOON:005:1,2015-05-10T17:12:00Z,27.6346,-97.2370,1.157,1111122 
TCOON,ioos:station:TCOON:005:1,2015-05-10T18:12:00Z,27.6346,-97.2370,1.168,1111122 
TCOON,ioos:station:TCOON:005:1,2015-05-10T19:12:00Z,27.6346,-97.2370,1.175,1111122 
TCOON,ioos:station:TCOON:005:1,2015-05-10T20:12:00Z,27.6346,-97.2370,1.191,1111122 
TCOON,ioos:station:TCOON:005:1,2015-05-10T21:12:00Z,27.6346,-97.2370,1.202,1111122 
TCOON,ioos:station:TCOON:005:1,2015-05-10T22:12:00Z,27.6346,-97.2370,1.21,1111122 
TCOON,ioos:station:TCOON:005:1,2015-05-10T23:12:00Z,27.6346,-97.2370,1.207,1111122 
TCOON,ioos:station:TCOON:005:1,2015-05-11T00:12:00Z,27.6346,-97.2370,1.205,1111122 
TCOON,ioos:station:TCOON:005:1,2015-05-11T01:12:00Z,27.6346,-97.2370,1.2,1111122 
TCOON,ioos:station:TCOON:005:1,2015-05-11T02:12:00Z,27.6346,-97.2370,1.182,1111122 
TCOON,ioos:station:TCOON:005:1,2015-05-11T03:12:00Z,27.6346,-97.2370,1.183,1111122 
TCOON,ioos:station:TCOON:005:1,2015-05-11T04:18:00Z,27.6346,-97.2370,1.168,1111122 
TCOON,ioos:station:TCOON:005:1,2015-05-11T05:12:00Z,27.6346,-97.2370,1.158,1111122 
TCOON,ioos:station:TCOON:005:1,2015-05-11T07:06:00Z,27.6346,-97.2370,1.147,1111122 
TCOON,ioos:station:TCOON:005:1,2015-05-11T08:18:00Z,27.6346,-97.2370,1.134,1111122 
TCOON,ioos:station:TCOON:005:1,2015-05-11T09:12:00Z,27.6346,-97.2370,1.121,1111122 
TCOON,ioos:station:TCOON:005:1,2015-05-11T10:12:00Z,27.6346,-97.2370,1.11,1111122 
TCOON,ioos:station:TCOON:005:1,2015-05-11T11:12:00Z,27.6346,-97.2370,1.101,1111122 
TCOON,ioos:station:TCOON:005:1,2015-05-11T12:12:00Z,27.6346,-97.2370,1.096,1111122 
TCOON,ioos:station:TCOON:005:1,2015-05-11T13:18:00Z,27.6346,-97.2370,1.102,1111122 
TCOON,ioos:station:TCOON:005:1,2015-05-11T14:18:00Z,27.6346,-97.2370,1.108,1111122 
TCOON,ioos:station:TCOON:005:1,2015-05-11T15:12:00Z,27.6346,-97.2370,1.118,1111122 
TCOON,ioos:station:TCOON:005:1,2015-05-11T16:18:00Z,27.6346,-97.2370,1.122,1111122 
TCOON,ioos:station:TCOON:005:1,2015-05-11T17:12:00Z,27.6346,-97.2370,1.132,1111122 
TCOON,ioos:station:TCOON:005:1,2015-05-11T18:12:00Z,27.6346,-97.2370,1.153,1111122 
TCOON,ioos:station:TCOON:005:1,2015-05-11T19:12:00Z,27.6346,-97.2370,1.166,1111122 
TCOON,ioos:station:TCOON:005:1,2015-05-11T20:18:00Z,27.6346,-97.2370,1.173,1111122 
TCOON,ioos:station:TCOON:005:1,2015-05-11T21:18:00Z,27.6346,-97.2370,1.175,1111122 
TCOON,ioos:station:TCOON:005:1,2015-05-11T22:18:00Z,27.6346,-97.2370,1.178,1111122 
TCOON,ioos:station:TCOON:005:1,2015-05-11T23:12:00Z,27.6346,-97.2370,1.179,1111122 
TCOON,ioos:station:TCOON:005:1,2015-05-12T00:12:00Z,27.6346,-97.2370,1.184,1111122 
TCOON,ioos:station:TCOON:005:1,2015-05-12T01:12:00Z,27.6346,-97.2370,1.191,1111122 
TCOON,ioos:station:TCOON:005:1,2015-05-12T02:12:00Z,27.6346,-97.2370,1.199,1111122 
TCOON,ioos:station:TCOON:005:1,2015-05-12T03:12:00Z,27.6346,-97.2370,1.216,1111122 
TCOON,ioos:station:TCOON:005:1,2015-05-12T04:18:00Z,27.6346,-97.2370,1.194,1111122 
TCOON,ioos:station:TCOON:005:1,2015-05-12T05:18:00Z,27.6346,-97.2370,1.198,1111122 
TCOON,ioos:station:TCOON:005:1,2015-05-12T07:06:00Z,27.6346,-97.2370,1.189,1111122 
TCOON,ioos:station:TCOON:005:1,2015-05-12T08:18:00Z,27.6346,-97.2370,1.207,1111122 
TCOON,ioos:station:TCOON:005:1,2015-05-12T09:12:00Z,27.6346,-97.2370,1.405,1111122 
TCOON,ioos:station:TCOON:005:1,2015-05-12T10:12:00Z,27.6346,-97.2370,1.647,1111122 
TCOON,ioos:station:TCOON:005:1,2015-05-12T11:18:00Z,27.6346,-97.2370,1.509,1111122 
TCOON,ioos:station:TCOON:005:1,2015-05-12T12:12:00Z,27.6346,-97.2370,1.437,1111122 
TCOON,ioos:station:TCOON:005:1,2015-05-12T13:12:00Z,27.6346,-97.2370,1.38,1111122 
TCOON,ioos:station:TCOON:005:1,2015-05-12T14:18:00Z,27.6346,-97.2370,1.341,1111122 
TCOON,ioos:station:TCOON:005:1,2015-05-12T15:24:00Z,27.6346,-97.2370,1.346,1111122 
TCOON,ioos:station:TCOON:005:1,2015-05-12T16:12:00Z,27.6346,-97.2370,1.331,1111122 
TCOON,ioos:station:TCOON:005:1,2015-05-12T17:18:00Z,27.6346,-97.2370,1.352,1111122 
TCOON,ioos:station:TCOON:005:1,2015-05-12T18:18:00Z,27.6346,-97.2370,1.337,1111122 
TCOON,ioos:station:TCOON:005:1,2015-05-12T19:18:00Z,27.6346,-97.2370,1.333,1111122 
TCOON,ioos:station:TCOON:005:1,2015-05-12T20:18:00Z,27.6346,-97.2370,1.318,1111122 
TCOON,ioos:station:TCOON:005:1,2015-05-12T21:12:00Z,27.6346,-97.2370,1.311,1111122 
TCOON,ioos:station:TCOON:005:1,2015-05-12T22:18:00Z,27.6346,-97.2370,1.294,1111122 
TCOON,ioos:station:TCOON:005:1,2015-05-12T23:12:00Z,27.6346,-97.2370,1.282,1111122 
TCOON,ioos:station:TCOON:005:1,2015-05-13T00:18:00Z,27.6346,-97.2370,1.27,1111122 